Stations météo

réclame
Mon MeteoGroup
San Sebastian/Igueldo, Espagne (8027): Température de l'air & dewpoint: 14.10.2018 19:00:00 - 20.10.2018 19:00:00 (CEST)San Sebastian/Igueldo, Espagne (8027): Vitesse du vent: 14.10.2018 19:00:00 - 20.10.2018 19:00:00 (CEST)San Sebastian/Igueldo, Espagne (8027): Direction du vent: 14.10.2018 19:00:00 - 20.10.2018 19:00:00 (CEST)San Sebastian/Igueldo, Espagne (8027): reduced air pressure: 14.10.2018 19:00:00 - 20.10.2018 19:00:00 (CEST)San Sebastian/Igueldo, Espagne (8027): visibility: 14.10.2018 19:00:00 - 20.10.2018 19:00:00 (CEST)
Date & Time tt [°C] td [°C] ff [km/h] ff [knt] dd ppp [hPa] vv [km]
20.10.2018 19:00:00 - - - - - - -
20.10.2018 18:00:00 - - - - - - -
20.10.2018 17:00:00 15,8 15,5 8 4 NNW 1024,5 0,3
20.10.2018 16:00:00 - - - - - - -
20.10.2018 15:00:00 - - - - - - -
20.10.2018 14:00:00 15,8 14,7 4 2 WNW 1024,9 3,5
20.10.2018 13:00:00 - - - - - - -
20.10.2018 12:00:00 - - - - - - -
20.10.2018 11:00:00 15,3 14,0 4 2 W 1024,5 5
20.10.2018 10:00:00 - - - - - - -
20.10.2018 09:00:00 - - - - - - -
20.10.2018 08:00:00 15,0 13,9 8 4 SW 1022,5 10
20.10.2018 07:00:00 - - - - - - -
20.10.2018 06:00:00 - - - - - - -
20.10.2018 05:00:00 14,6 13,5 11 6 W 1022,2 10
20.10.2018 04:00:00 - - - - - - -
20.10.2018 03:00:00 - - - - - - -
20.10.2018 02:00:00 14,5 14,0 15 8 W 1021,7 10
20.10.2018 01:00:00 - - - - - - -
20.10.2018 00:00:00 - - - - - - -
19.10.2018 23:00:00 15,0 15,0 15 8 W 1021,7 3,0
19.10.2018 22:00:00 - - - - - - -
19.10.2018 21:00:00 - - - - - - -
19.10.2018 20:00:00 15,0 15,0 9 5 W 1020,0 5
19.10.2018 19:00:00 - - - - - - -
19.10.2018 18:00:00 - - - - - - -
19.10.2018 17:00:00 15,9 15,9 13 7 WNW 1019,2 0,3
19.10.2018 16:00:00 - - - - - - -
19.10.2018 15:00:00 - - - - - - -
19.10.2018 14:00:00 16,0 16,0 15 8 W 1019,4 -
19.10.2018 13:00:00 - - - - - - -
19.10.2018 12:00:00 - - - - - - -
19.10.2018 11:00:00 15,6 15,6 13 7 W 1018,9 -
19.10.2018 10:00:00 - - - - - - -
19.10.2018 09:00:00 - - - - - - -
19.10.2018 08:00:00 15,6 15,6 13 7 NW 1017,1 -
19.10.2018 07:00:00 - - - - - - -
19.10.2018 06:00:00 - - - - - - -
19.10.2018 05:00:00 15,6 15,6 15 8 NW 1017,0 -
19.10.2018 04:00:00 - - - - - - -
19.10.2018 03:00:00 - - - - - - -
19.10.2018 02:00:00 15,6 15,6 15 8 WNW 1016,9 -
19.10.2018 01:00:00 - - - - - - -
19.10.2018 00:00:00 - - - - - - -
18.10.2018 23:00:00 15,4 15,4 13 7 WNW 1016,7 6
18.10.2018 22:00:00 - - - - - - -
18.10.2018 21:00:00 - - - - - - -
18.10.2018 20:00:00 15,6 15,6 9 5 NW 1016,1 -
18.10.2018 19:00:00 - - - - - - -
18.10.2018 18:00:00 - - - - - - -
18.10.2018 17:00:00 15,6 15,6 9 5 NW 1015,4 -
18.10.2018 16:00:00 - - - - - - -
18.10.2018 15:00:00 - - - - - - -
18.10.2018 14:00:00 15,0 15,0 8 4 N 1016,1 0,5
18.10.2018 13:00:00 - - - - - - -
18.10.2018 12:00:00 - - - - - - -
18.10.2018 11:00:00 14,7 14,7 9 5 NW 1015,8 0,1
18.10.2018 10:00:00 - - - - - - -
18.10.2018 09:00:00 - - - - - - -
18.10.2018 08:00:00 14,5 14,3 4 2 WNW 1015,1 0,5
18.10.2018 07:00:00 - - - - - - -
18.10.2018 06:00:00 - - - - - - -
18.10.2018 05:00:00 13,8 13,6 4 2 SSE 1015,2 20
18.10.2018 04:00:00 - - - - - - -
18.10.2018 03:00:00 - - - - - - -
18.10.2018 02:00:00 14,4 14,4 4 2 S 1015,5 25
18.10.2018 01:00:00 - - - - - - -
18.10.2018 00:00:00 - - - - - - -
17.10.2018 23:00:00 14,8 14,8 5 3 WNW 1015,1 20
17.10.2018 22:00:00 - - - - - - -
17.10.2018 21:00:00 - - - - - - -
17.10.2018 20:00:00 14,8 14,5 8 4 NNE 1014,6 0,5
17.10.2018 19:00:00 - - - - - - -
17.10.2018 18:00:00 - - - - - - -
17.10.2018 17:00:00 15,4 13,9 11 6 N 1015,0 15
17.10.2018 16:00:00 - - - - - - -
17.10.2018 15:00:00 - - - - - - -
17.10.2018 14:00:00 15,6 14,1 9 5 N 1017,3 12
17.10.2018 13:00:00 - - - - - - -
17.10.2018 12:00:00 - - - - - - -
17.10.2018 11:00:00 14,8 13,3 4 2 S 1018,4 15
17.10.2018 10:00:00 - - - - - - -
17.10.2018 09:00:00 - - - - - - -
17.10.2018 08:00:00 13,7 13,2 4 2 NNW 1018,8 20
17.10.2018 07:00:00 - - - - - - -
17.10.2018 06:00:00 - - - - - - -
17.10.2018 05:00:00 13,9 13,7 2 1 SSW 1018,9 20
17.10.2018 04:00:00 - - - - - - -
17.10.2018 03:00:00 - - - - - - -
17.10.2018 02:00:00 13,8 13,5 4 2 ENE 1019,8 20
17.10.2018 01:00:00 - - - - - - -
17.10.2018 00:00:00 - - - - - - -
16.10.2018 23:00:00 14,8 12,8 2 1 SSE 1020,1 20
16.10.2018 22:00:00 - - - - - - -
16.10.2018 21:00:00 - - - - - - -
16.10.2018 20:00:00 14,2 13,7 8 4 WNW 1019,0 0,2
16.10.2018 19:00:00 - - - - - - -
16.10.2018 18:00:00 - - - - - - -
16.10.2018 17:00:00 15,3 14,7 5 3 NNW 1018,4 5
16.10.2018 16:00:00 - - - - - - -
16.10.2018 15:00:00 - - - - - - -
16.10.2018 14:00:00 15,4 14,8 15 8 WNW 1017,8 25
16.10.2018 13:00:00 - - - - - - -
16.10.2018 12:00:00 - - - - - - -
16.10.2018 11:00:00 15,0 13,9 4 2 NW 1016,9 30
16.10.2018 10:00:00 - - - - - - -
16.10.2018 09:00:00 - - - - - - -
16.10.2018 08:00:00 13,8 13,5 5 3 WSW 1015,1 25
16.10.2018 07:00:00 - - - - - - -
16.10.2018 06:00:00 - - - - - - -
16.10.2018 05:00:00 13,8 13,3 11 6 W 1013,5 25
16.10.2018 04:00:00 - - - - - - -
16.10.2018 03:00:00 - - - - - - -
16.10.2018 02:00:00 13,6 12,8 - - - 1012,9 35
16.10.2018 01:00:00 - - - - - - -
16.10.2018 00:00:00 - - - - - - -
15.10.2018 23:00:00 14,3 13,0 8 4 W 1011,6 35
15.10.2018 22:00:00 - - - - - - -
15.10.2018 21:00:00 - - - - - - -
15.10.2018 20:00:00 14,8 13,7 11 6 NE 1009,3 40
15.10.2018 19:00:00 - - - - - - -
15.10.2018 18:00:00 - - - - - - -
15.10.2018 17:00:00 16,0 13,5 15 8 NNE 1007,9 40
15.10.2018 16:00:00 - - - - - - -
15.10.2018 15:00:00 - - - - - - -
15.10.2018 14:00:00 16,4 12,2 8 4 NNE 1007,9 40
15.10.2018 13:00:00 - - - - - - -
15.10.2018 12:00:00 - - - - - - -
15.10.2018 11:00:00 13,8 10,0 15 8 SSE 1008,0 40
15.10.2018 10:00:00 - - - - - - -
15.10.2018 09:00:00 - - - - - - -
15.10.2018 08:00:00 12,0 9,9 9 5 SSW 1008,1 40
15.10.2018 07:00:00 - - - - - - -
15.10.2018 06:00:00 - - - - - - -
15.10.2018 05:00:00 - - - - - - -
15.10.2018 04:00:00 - - - - - - -
15.10.2018 03:00:00 - - - - - - -
15.10.2018 02:00:00 13,6 11,8 15 8 W 1010,0 30
15.10.2018 01:00:00 - - - - - - -
15.10.2018 00:00:00 - - - - - - -
14.10.2018 23:00:00 13,0 8,7 15 8 SW 1010,8 25
14.10.2018 22:00:00 - - - - - - -
14.10.2018 21:00:00 - - - - - - -
14.10.2018 20:00:00 12,6 9,4 22 12 W 1010,4 15
14.10.2018 19:00:00 - - - - - - -

tt = Température de l'air
td = dewpoint
ff = Vitesse du vent
dd = Direction du vent
ppp = reduced air pressure
vv = visibility

stations d'obs. à proximité